McCook, NE

8:20 PM CDT on June 26, 2017 (GMT -0500)
McCook Municipal

Weather History for KMCK - April, 2013

Change the Weather History Date:

Wednesday, April 24, 2013

  Actual Average Record
Temperature  
Mean Temperature 43 °F 52 °F  
Max Temperature 63 °F 67 °F 95 °F (2012)
Min Temperature 22 °F 38 °F 22 °F (2013)
Degree Days  
Heating Degree Days 23    
Moisture  
Dew Point 22 °F    
Average Humidity 56    
Maximum Humidity 88    
Minimum Humidity 19    
Precipitation  
Precipitation 0.00 in 0.09 in 3.25 in (2007)
Month to date precipitation 1.57 1.75  
Year to date precipitation 3.41 4.24  
Sea Level Pressure  
Sea Level Pressure 30.22 in    
Wind  
Wind Speed 9 mph (West)    
Max Wind Speed 23 mph    
Max Gust Speed 32 mph    
Visibility 10 miles    
Events      
T = Trace of Precipitation, MM = Missing Value Source: NWS Daily Summary

Daily Weather History Graph

Daily Weather History Graph

Search for Another Location

Airport or City:

Trip Planner

Search our weather history database for the weather conditions in past years. The results will help you decide how hot, cold, wet, or windy it might be!

Date:

Astronomy

Apr. 24, 2013 Rise Set
Actual Time 6:50 AM CDT 8:30 PM CDT
Civil Twilight 6:22 AM CDT 8:59 PM CDT
Nautical Twilight 5:47 AM CDT 9:34 PM CDT
Astronomical Twilight 5:10 AM CDT 10:11 PM CDT
Moon 7:36 PM CDT (4/24) 5:55 AM CDT (4/24)
Length of Visible Light 14h 37m
Length of Day
13h 39m
Waxing Gibbous, 98% of the Moon is Illuminated
Apr 24
Waxing Gibbous
Apr 25
Full
May 2
Last Quarter
May 9
New
May 17
First Quarter

Hourly Weather History & Observations

Time (CDT) Temp. Windchill Dew Point Humidity Pressure Visibility Wind Dir Wind Speed Gust Speed Precip Events Conditions
12:53 AM 27.0 °F 20.5 °F 19.0 °F 72% 30.29 in 10.0 mi SW 5.8 mph - N/A   Clear
1:53 AM 25.0 °F 17.1 °F 19.0 °F 78% 30.28 in 10.0 mi SW 6.9 mph - N/A   Clear
2:53 AM 24.1 °F 16.0 °F 21.0 °F 88% 30.27 in 10.0 mi SW 6.9 mph - N/A   Clear
3:53 AM 24.1 °F 15.2 °F 21.0 °F 88% 30.25 in 9.0 mi West 8.1 mph - N/A   Clear
4:53 AM 24.8 °F 16.9 °F 21.2 °F 86% 30.17 in 9.0 mi West 6.9 mph - N/A   Clear
5:53 AM 24.1 °F 18.2 °F 21.0 °F 88% 30.23 in 9.0 mi West 4.6 mph - N/A   Clear
6:53 AM 23.0 °F 13.9 °F 19.0 °F 85% 30.23 in 9.0 mi SW 8.1 mph - N/A   Clear
7:53 AM 26.1 °F 17.6 °F 21.0 °F 81% 30.23 in 10.0 mi WSW 8.1 mph - N/A   Clear
8:53 AM 30.0 °F 23.2 °F 23.0 °F 75% 30.25 in 10.0 mi West 6.9 mph - N/A   Clear
9:53 AM 36.0 °F 28.5 °F 26.1 °F 67% 30.25 in 10.0 mi West 10.4 mph - N/A   Clear
10:53 AM 43.0 °F 36.0 °F 26.1 °F 51% 30.23 in 10.0 mi West 13.8 mph - N/A   Clear
11:53 AM 46.0 °F 41.0 °F 27.0 °F 47% 30.23 in 10.0 mi West 10.4 mph - N/A   Clear
12:53 PM 52.0 °F - 28.0 °F 40% 30.20 in 10.0 mi West 11.5 mph - N/A   Clear
1:53 PM 55.9 °F - 25.0 °F 30% 30.18 in 10.0 mi WNW 8.1 mph 19.6 mph N/A   Clear
2:53 PM 59.0 °F - 19.0 °F 21% 30.16 in 10.0 mi West 15.0 mph 20.7 mph N/A   Clear
3:53 PM 60.1 °F - 17.1 °F 19% 30.15 in 10.0 mi NW 20.7 mph 32.2 mph N/A   Mostly Cloudy
4:53 PM 61.0 °F - 18.0 °F 19% 30.14 in 10.0 mi WNW 16.1 mph 26.5 mph N/A   Mostly Cloudy
5:53 PM 57.0 °F - 19.9 °F 24% 30.16 in 10.0 mi NW 18.4 mph 28.8 mph N/A   Overcast
6:53 PM 57.0 °F - 21.9 °F 26% 30.17 in 10.0 mi NW 23.0 mph 27.6 mph N/A   Clear
7:53 PM 53.1 °F - 23.0 °F 31% 30.19 in 10.0 mi NNW 13.8 mph - N/A   Clear
8:53 PM 45.0 °F 39.7 °F 25.0 °F 46% 30.22 in 10.0 mi North 10.4 mph - N/A   Clear
9:53 PM 39.0 °F 32.8 °F 25.0 °F 57% 30.25 in 10.0 mi North 9.2 mph - N/A   Clear
10:53 PM 37.0 °F 34.5 °F 24.1 °F 59% 30.28 in 10.0 mi SE 3.5 mph - N/A   Clear
11:53 PM 36.0 °F 32.1 °F 23.0 °F 59% 30.27 in 10.0 mi ENE 4.6 mph - N/A   Clear